This demonstration page uses our WeatherBlox Daily Observations layout. Learn more.

41.55636, -103.73856

Hourly Observations for November 4, 2015

Temp ( °F °C ) Dew Point ( °F °C ) Humidity (%) Winds ( mph kmh ) Pressure ( in mb ) Visibility ( mi km ) Precip ( " mm )
12:53 am 00:53 Clear 38 3.3 31 -0.6 76 76 WNW 12 19 29.61 1003 8 12.87472 0 0
1:53 am 01:53 Clear 38 3.3 29 -1.7 70 70 WNW 9 15 29.64 1004 7 11.26538 0 0
2:53 am 02:53 Clear 36 2.2 29 -1.7 76 76 NW 9 15 29.63 1003 9 14.48406 0 0
3:53 am 03:53 Clear 37 2.8 29 -1.7 73 73 Calm 29.66 1005 10 16.0934 0 0
4:53 am 04:53 Clear 35 1.7 29 -1.7 78 78 NNW 8 13 29.71 1006 10 16.0934 0 0
5:53 am 05:53 Clear 37 2.8 31 -0.6 79 79 NW 14 22 29.74 1007 10 16.0934 0 0
6:53 am 06:53 Sunny 34 1.1 31 -0.6 89 89 NW 5 7 29.78 1009 10 16.0934 0 0
7:53 am 07:53 Sunny 41 5 34 1.1 76 76 WNW 7 11 29.78 1009 10 16.0934 0 0
8:53 am 08:53 Sunny 47 8.3 35 1.7 63 63 WNW 8 13 29.77 1008 10 16.0934 0 0
9:53 am 09:53 Sunny 52 11.1 37 2.8 57 57 Calm 29.75 1008 10 16.0934 0 0
10:53 am 10:53 Sunny 57 13.9 38 3.3 49 49 VRB 5 7 29.72 1006 10 16.0934 0 0
11:53 am 11:53 Sunny 60 15.6 39 3.9 46 46 NE 10 17 29.7 1006 10 16.0934 0 0
12:53 pm 12:53 Sunny 57 13.9 40 4.4 53 53 E 15 24 29.71 1006 10 16.0934 0 0
1:53 pm 13:53 Sunny 57 13.9 40 4.4 53 53 E 14 22 29.72 1007 10 16.0934 0 0
2:53 pm 14:53 Sunny 54 12.2 40 4.4 59 59 E 14 22 29.75 1008 10 16.0934 0 0
3:53 pm 15:53 Mostly Cloudy 47 8.3 39 3.9 74 74 ENE 14 22 29.77 1008 10 16.0934 0 0
4:53 pm 16:53 Cloudy with Light Rain 45 7.2 38 3.3 77 77 N 7 11 29.82 1010 10 16.0934 0 0.0254
5:28 pm 17:28 Cloudy with Light Rain 45 7 39 4 81 81 N 3 6 29.83 1010 10 16.0934 0 0
5:53 pm 17:53 Cloudy 44 6.7 40 4.4 85 85 N 9 15 29.82 1010 10 16.0934 0.01 0.254
6:53 pm 18:53 Cloudy with Light Rain 44 6.7 40 4.4 85 85 N 3 6 29.84 1011 9 14.48406 0 0.0254
7:04 pm 19:04 Cloudy with Light Rain 43 6 39 4 87 87 N 5 7 29.8 1009 8 12.87472 0 0
7:33 pm 19:33 Cloudy 43 6.1 40 4.4 89 89 Calm 29.8 1009 10 16.0934 0 0.0254
7:53 pm 19:53 Cloudy 44 6.7 40 4.4 85 85 Calm 29.79 1009 10 16.0934 0 0.0254
8:10 pm 20:10 Cloudy with Light Rain 43 6 39 4 87 87 ENE 3 6 29.8 1009 9 14.48406 0 0
8:35 pm 20:35 Cloudy with Light Rain 44 6.7 41 5 89 89 Calm 29.8 1009 8 12.87472 0 0.0254
8:53 pm 20:53 Cloudy with Light Rain 43 6.1 40 4.4 89 89 E 3 6 29.78 1008 7 11.26538 0.02 0.508
9:09 pm 21:09 Cloudy with Light Rain 43 6.1 40 4.4 89 89 E 5 7 29.77 1008 4 6.43736 0.02 0.508
9:53 pm 21:53 Cloudy with Light Rain 43 6.1 41 5 93 93 ESE 5 7 29.75 1007 5 8.0467 0.07 1.778
10:10 pm 22:10 Cloudy with Light Rain 43 6 41 5 93 93 SSW 3 6 29.77 1008 4 6.43736 0 0
10:30 pm 22:30 Cloudy with Rain 43 6 41 5 93 93 Calm 29.77 1008 4 6.43736 0 0
10:40 pm 22:40 Cloudy with Rain 43 6 41 5 93 93 SSE 7 11 29.77 1008 5 8.0467 0 0
10:53 pm 22:53 Cloudy with Light Rain 42 5.6 41 5 96 96 SE 9 15 29.74 1007 5 8.0467 0.11 2.794
11:33 pm 23:33 Cloudy with Light Rain 42 5.6 41 5 96 96 SSE 6 9 29.77 1008 5 8.0467 0.06 1.524
11:53 pm 23:53 Cloudy with Light Rain 42 5.6 41 5 96 96 SE 9 15 29.73 1007 6 9.65604 0.09 2.286

Powered by AerisWeather